Temperature
7 8 8 9 9 9 9 9 9 11 12 12 12 11 10 10 9 8 8 7 9 9 9 9 9 9 8 8 7 7 6 6 5 5 5 4 4 3 2 2 1 1 0 -0
8 9 9 9 10 10 9 9 9 11 12 13 11 10 9 10 9 9 8 8 8 9 9 9 9 8 8 7 6 6 6 5 5 4 4 3 3 2 2 1 1 0 -0 -1
9 10 10 10 11 10 10 10 10 12 13 12 12 11 9 10 10 9 9 8 9 10 10 9 9 8 7 6 6 5 5 4 4 4 3 3 2 1 1 1 0 -0 -1 -2
9 10 10 12 12 12 12 12 12 13 13 13 12 10 11 11 11 10 10 9 9 10 9 9 8 7 7 6 5 4 4 4 3 3 2 2 1 1 0 -0 -1 -1 -2 -3
9 10 11 13 12 12 12 12 12 12 11 9 10 10 10 11 12 12 11 11 10 10 10 9 8 7 6 5 4 4 3 3 3 2 1 1 0 -0 -1 -1 -1 -2 -3 -3
9 10 10 13 13 12 12 12 12 11 10 8 10 10 9 10 12 12 11 11 10 10 9 8 7 6 5 4 4 3 3 2 2 1 1 0 -0 -1 -1 -2 -2 -3 -3 -4
9 9 10 11 11 13 12 12 11 10 10 9 9 10 8 9 11 11 11 10 10 9 8 7 6 5 4 4 3 3 2 2 1 0 0 -0 -1 -1 -2 -2 -3 -3 -3 -4
9 9 10 12 12 12 11 10 9 8 9 8 6 7 8 9 10 10 10 9 9 8 7 6 5 4 4 3 2 2 1 1 0 -0 -1 -1 -2 -2 -3 -3 -3 -3 -4 -5
9 10 10 10 11 11 11 10 8 7 8 8 6 6 7 8 9 9 8 8 7 7 5 4 4 3 3 2 2 1 1 0 -0 -1 -1 -2 -2 -3 -3 -3 -4 -4 -6 -7
9 9 9 10 11 11 12 11 10 9 8 9 7 7 7 7 7 7 7 6 6 5 4 3 2 2 2 1 1 0 -0 -1 -1 -1 -2 -2 -3 -3 -3 -4 -5 -6 -8 -8
9 9 8 9 10 11 11 10 9 8 8 9 9 8 7 7 6 6 5 5 5 4 3 2 1 1 1 0 -0 -0 -1 -1 -2 -2 -2 -3 -3 -3 -4 -5 -6 -8 -9 -9
9 9 8 8 9 10 10 9 9 8 7 8 9 8 7 7 6 6 5 4 3 3 2 1 1 0 -0 -1 -1 -1 -1 -2 -2 -3 -3 -3 -3 -4 -4 -6 -6 -7 -8 -9
11 11 10 9 8 9 9 9 9 9 8 8 8 7 7 6 5 5 4 3 3 2 1 1 0 -0 -1 -1 -1 -2 -2 -2 -3 -3 -3 -4 -4 -5 -6 -6 -7 -7 -8 -8
11 10 7 7 7 8 9 8 8 8 7 7 7 7 6 5 4 4 3 2 1 1 0 -0 -1 -1 -2 -2 -2 -2 -3 -3 -3 -4 -4 -5 -5 -6 -7 -8 -8 -8 -8 -9
9 10 9 7 7 8 8 8 7 7 6 6 6 6 5 5 3 2 2 1 0 -0 -1 -1 -1 -2 -2 -2 -3 -3 -3 -3 -4 -4 -5 -5 -6 -7 -8 -9 -9 -9 -9 -9
8 8 7 7 7 7 7 7 7 6 6 6 5 5 4 3 2 1 0 -0 -0 -1 -1 -2 -2 -2 -3 -3 -3 -3 -4 -4 -5 -5 -6 -6 -7 -8 -9 -9 -9 -9 -9 -10
7 4 5 5 6 6 7 7 7 6 6 5 4 4 3 2 1 -0 -1 -1 -1 -2 -2 -2 -3 -3 -3 -3 -4 -4 -4 -5 -5 -6 -7 -7 -8 -9 -9 -9 -10 -10 -10 -10
10 10 9 8 7 6 6 6 6 6 5 4 4 3 2 1 0 -1 -1 -2 -2 -2 -3 -3 -3 -3 -4 -4 -4 -5 -5 -5 -6 -7 -7 -8 -9 -9 -9 -10 -10 -10 -10 -10
8 7 6 6 6 6 6 6 5 5 4 3 3 2 1 0 -1 -1 -2 -2 -3 -3 -3 -4 -4 -4 -4 -5 -5 -5 -6 -6 -7 -7 -8 -9 -9 -9 -10 -10 -10 -10 -11 -11
6 6 5 5 6 6 6 5 4 4 3 2 2 1 -0 -1 -2 -2 -2 -3 -3 -4 -4 -4 -4 -5 -5 -5 -6 -6 -6 -7 -8 -8 -9 -9 -9 -10 -10 -10 -11 -11 -11 -12
4 4 5 5 5 5 5 4 4 3 2 1 1 0 -1 -2 -2 -3 -3 -3 -4 -4 -4 -5 -5 -5 -5 -6 -6 -7 -7 -8 -8 -9 -9 -10 -10 -10 -10 -11 -11 -11 -12 -12
3 4 4 5 4 4 3 3 3 2 1 0 -0 -0 -1 -2 -3 -4 -4 -4 -4 -5 -5 -5 -5 -6 -6 -6 -7 -7 -8 -8 -9 -9 -10 -10 -10 -11 -11 -11 -11 -12 -12 -12
3 4 4 4 4 3 2 2 1 1 0 -0 -1 -1 -2 -3 -3 -3 -4 -4 -5 -5 -6 -6 -6 -6 -6 -7 -7 -8 -8 -9 -9 -10 -10 -10 -11 -11 -11 -12 -12 -12 -12 -12
3 4 3 3 3 2 1 0 -0 -0 -1 -1 -2 -3 -3 -3 -4 -4 -5 -5 -5 -6 -6 -6 -6 -7 -7 -7 -8 -8 -9 -9 -10 -10 -10 -11 -11 -11 -12 -12 -12 -12 -12 -12
4 3 3 2 2 1 0 -0 -1 -1 -2 -2 -3 -4 -4 -4 -4 -5 -5 -6 -6 -6 -6 -7 -7 -7 -8 -8 -9 -9 -9 -10 -10 -10 -11 -11 -11 -12 -12 -12 -12 -12 -12 -12
3 2 2 2 2 1 0 -1 -1 -2 -2 -3 -4 -5 -5 -5 -5 -6 -6 -6 -6 -7 -7 -7 -7 -8 -8 -9 -9 -9 -10 -10 -10 -10 -11 -11 -11 -12 -12 -12 -12 -12 -12 -12
2 1 1 0 0 -0 -1 -1 -2 -3 -3 -3 -4 -5 -5 -6 -6 -6 -6 -6 -7 -7 -7 -8 -8 -8 -9 -9 -9 -10 -10 -10 -10 -11 -11 -11 -12 -12 -12 -12 -12 -12 -12 -12
Wind_Speed
16 17 11 11 17 19 18 13 7 7 8 9 7 9 13 15 17 17 17 18 18 17 14 13 12 12 12 11 10 11 10 9 7 6 6 5 3 2 3 4 5 6 6 7
10 13 13 12 15 19 19 15 12 10 7 5 2 6 9 14 18 19 19 19 18 17 16 16 15 14 13 11 10 10 10 8 7 6 5 4 2 3 4 5 5 6 7 7
4 2 6 7 15 17 15 13 13 9 6 3 4 8 12 15 17 19 19 18 19 18 17 15 15 15 14 11 11 10 9 8 6 6 4 3 2 3 4 5 5 6 7 8
3 2 2 4 7 13 13 13 11 8 7 7 6 6 4 5 12 14 15 16 15 14 13 12 12 14 13 12 11 10 8 7 6 5 4 2 3 3 4 4 5 5 7 8
2 3 5 3 2 6 8 6 8 10 7 6 8 6 4 4 5 9 10 11 12 12 13 14 15 15 15 12 10 9 8 7 5 4 3 2 3 4 4 4 6 6 7 8
2 3 2 3 2 1 5 3 2 5 9 10 9 6 3 2 6 10 12 12 13 14 15 15 14 15 15 12 10 9 7 6 5 4 2 1 3 4 3 4 6 7 7 8
2 2 6 6 5 2 5 4 3 2 7 11 6 5 8 8 10 13 14 15 15 16 14 14 14 14 13 11 9 8 7 6 5 3 1 2 3 3 5 6 6 7 8 8
5 4 7 4 2 4 3 1 3 3 4 9 12 14 12 12 14 15 16 15 15 15 13 11 12 14 12 9 8 7 7 5 4 2 2 3 4 5 5 6 7 7 7 8
8 7 3 2 1 1 3 4 3 5 10 17 15 12 13 12 14 13 14 13 13 16 14 10 9 12 12 8 7 7 6 5 3 3 3 3 4 5 5 5 5 6 6 7
4 5 2 1 3 4 4 5 7 10 12 15 17 15 15 13 13 12 13 13 13 14 13 9 8 9 9 8 7 7 6 4 3 3 3 4 4 4 5 5 6 7 7 8
4 2 2 0 3 6 9 12 13 11 10 14 18 15 14 13 12 12 11 10 10 12 12 10 9 9 8 7 7 7 5 3 2 2 3 4 4 4 5 5 7 9 6 6
7 7 7 5 7 8 11 11 13 15 12 10 13 14 13 11 10 11 11 10 11 11 11 9 9 8 7 6 7 6 3 2 1 2 3 4 4 5 9 10 15 16 16 15
3 5 5 9 7 7 10 11 11 12 13 13 10 12 13 10 8 10 10 10 10 10 10 9 9 8 6 6 6 5 2 1 2 3 4 4 4 5 7 9 12 15 17 19
8 9 7 5 7 11 14 15 14 13 11 12 11 11 11 10 9 10 9 9 9 10 9 9 8 7 5 5 5 4 2 2 3 3 4 4 5 5 6 8 9 7 11 17
5 5 10 12 13 13 13 15 16 13 11 11 10 11 11 11 10 9 8 9 10 10 9 8 8 6 4 4 4 3 2 2 3 3 4 4 5 6 6 7 8 9 8 10
10 12 15 16 15 14 14 15 15 12 11 10 10 10 10 11 10 9 9 9 10 9 8 8 7 5 4 4 4 3 2 6 6 4 4 5 5 6 6 7 8 9 10 10
13 12 13 16 14 13 12 11 13 13 11 12 11 11 12 12 11 9 8 8 8 8 7 7 6 4 4 4 3 2 2 4 8 6 5 5 6 6 6 7 8 9 9 13
7 10 15 19 19 16 13 12 12 13 12 11 12 12 11 11 10 9 8 9 9 8 6 5 5 5 4 3 3 2 3 4 4 5 5 5 6 6 7 8 9 10 10 12
11 13 13 14 14 15 14 13 12 12 12 12 12 11 9 9 9 9 9 9 9 7 4 4 6 5 4 4 3 2 3 4 5 5 5 9 8 7 7 8 9 9 11 11
12 15 16 15 14 15 15 14 13 12 10 11 12 11 10 9 9 9 9 7 4 4 4 5 5 4 2 3 5 3 4 4 5 5 5 5 6 7 7 9 10 11 11 11
17 17 18 17 15 14 14 14 14 13 10 10 11 11 10 9 9 9 9 6 3 4 5 6 4 1 1 3 5 3 4 4 5 5 6 6 7 8 8 9 10 11 11 11
16 17 18 17 17 14 11 10 12 13 12 11 11 11 11 10 9 8 6 5 4 6 4 3 1 3 4 6 3 4 4 4 5 5 5 6 7 8 9 10 10 10 10 11
15 16 17 16 16 14 12 10 10 11 11 11 10 10 10 8 6 6 5 2 3 6 4 2 3 6 8 5 4 4 4 5 5 6 6 6 6 7 8 10 9 10 10 10
16 16 15 15 15 16 13 9 10 10 10 10 9 9 9 8 6 4 4 6 7 7 4 4 7 8 7 4 4 4 4 5 6 6 6 6 6 7 8 9 9 9 10 11
15 15 15 15 14 11 12 12 12 11 11 9 9 8 6 5 5 4 5 5 6 6 3 5 8 8 5 4 4 5 5 5 7 6 6 6 7 7 8 8 9 9 10 10
13 11 9 8 10 11 10 10 9 8 9 9 7 6 6 6 6 5 5 5 6 5 3 3 4 6 4 4 5 5 5 7 8 7 7 7 8 8 8 9 10 10 10 10
12 10 10 10 8 8 8 8 9 9 8 9 8 5 5 5 5 5 5 4 3 3 3 3 4 4 4 5 5 5 5 6 6 7 7 7 7 7 8 10 9 10 10 11
Wind_Direction
255 260 240 216 203 199 203 213 230 258 250 247 217 175 160 153 152 154 161 164 165 164 160 155 150 146 144 139 135 134 129 127 131 132 127 118 100 55 13 355 345 336 331 326
269 251 226 218 206 203 206 213 230 260 277 268 141 110 133 152 160 166 171 172 170 166 162 160 156 151 144 138 135 132 130 131 132 129 124 115 84 31 5 350 341 340 334 325
291 239 174 216 210 202 199 204 211 225 238 206 150 154 162 168 172 175 176 173 172 170 167 162 155 149 144 139 133 130 129 131 133 132 128 107 54 19 354 339 336 331 325 320
309 4 243 254 197 184 192 204 202 207 216 196 157 126 109 162 177 175 172 169 165 159 150 142 136 136 132 132 132 131 131 135 137 134 122 83 32 356 331 321 325 317 310 309
328 325 305 336 71 166 180 221 210 201 176 137 122 89 39 360 175 164 156 148 145 140 136 133 135 136 132 130 130 131 136 141 140 131 116 54 354 330 318 317 315 305 302 305
336 345 316 306 323 258 139 240 240 188 171 160 141 142 204 31 105 112 113 119 123 123 126 129 133 134 132 133 133 138 142 138 130 120 104 4 326 316 310 307 298 301 302 303
230 288 278 272 293 105 138 233 315 217 176 163 160 146 121 94 90 99 106 112 118 121 125 131 132 129 129 131 136 137 130 123 114 98 51 336 331 316 309 306 305 306 304 304
176 222 260 294 38 135 186 49 40 59 111 117 107 103 103 99 100 103 105 108 115 116 116 119 125 126 126 131 132 125 120 113 98 61 12 2 344 319 311 311 313 313 312 310
194 213 260 337 79 89 133 114 96 96 115 122 116 110 106 101 101 102 106 108 112 116 114 108 113 125 130 135 130 120 112 101 74 35 11 357 335 319 317 319 318 315 311 310
233 261 258 21 53 49 74 102 104 114 121 122 118 117 111 109 106 105 107 111 115 116 117 113 109 111 123 129 122 115 107 87 55 23 353 341 327 316 317 317 313 309 311 317
234 248 114 350 113 104 93 99 100 93 100 119 120 118 118 115 114 114 113 112 114 120 122 121 116 113 116 116 112 108 100 76 37 359 330 321 321 317 322 299 305 321 315 310
212 203 180 183 145 126 117 116 118 113 99 96 115 120 118 115 117 120 120 117 115 116 120 121 118 114 110 108 111 112 102 67 351 319 313 315 319 320 328 329 327 328 329 329
174 121 107 112 108 105 112 114 113 112 117 113 107 117 119 115 114 117 119 123 126 127 126 123 118 116 115 112 109 108 106 13 314 316 316 317 315 314 317 321 322 325 327 329
113 109 105 111 115 112 112 108 101 95 96 105 111 111 111 109 113 117 123 125 123 120 120 121 119 118 119 114 109 103 76 357 342 317 313 309 306 304 304 310 315 312 320 327
51 100 125 118 113 114 114 114 109 105 103 98 102 110 114 118 117 114 114 115 114 113 116 118 117 117 117 115 109 89 41 344 328 318 312 304 301 301 301 305 311 315 317 324
90 96 113 120 124 124 123 123 122 120 117 113 109 105 105 108 107 106 111 119 121 122 123 120 121 126 121 109 94 67 18 353 349 333 318 310 306 306 309 312 316 318 321 325
127 132 135 137 138 135 132 131 131 129 124 121 118 114 110 108 105 103 101 101 106 110 114 117 120 118 104 95 83 51 1 339 343 331 310 306 305 308 315 317 316 318 317 321
142 149 153 150 146 137 125 121 124 126 125 124 121 117 117 120 122 119 113 104 96 88 87 105 116 106 88 79 78 31 347 325 316 310 310 312 316 320 320 319 318 318 320 322
118 123 124 126 130 129 128 126 124 122 122 124 123 121 119 118 119 118 113 110 112 111 107 110 111 95 74 39 52 11 338 325 321 318 315 326 330 322 321 320 319 320 321 322
118 121 120 118 120 125 125 124 123 122 121 122 120 118 115 115 115 112 104 96 99 127 130 111 97 88 55 1 21 0 337 328 322 320 320 321 321 320 321 324 324 321 320 320
127 125 122 119 114 113 120 126 127 124 120 118 122 124 122 117 116 115 113 104 83 97 99 101 93 69 326 13 23 1 344 334 329 324 326 325 323 321 321 321 320 319 318 320
128 125 122 120 117 112 107 111 117 118 115 111 112 116 118 116 110 99 92 113 119 109 92 75 44 354 27 43 20 358 348 339 331 325 320 318 319 320 319 317 316 317 318 318
124 122 120 120 119 113 101 98 104 113 116 119 122 123 121 118 119 122 117 112 98 96 84 35 19 27 41 37 7 354 344 334 326 321 314 309 309 310 313 314 314 315 315 315
120 117 115 114 114 112 108 99 96 99 101 100 103 111 117 110 85 67 99 115 109 92 57 33 31 31 30 16 352 340 330 322 312 305 306 310 309 308 309 311 312 313 311 310
119 119 119 120 118 119 119 114 105 102 100 97 89 81 78 92 111 107 87 79 91 87 54 26 25 22 17 346 337 328 320 312 311 319 322 315 309 308 308 307 307 308 307 306
122 119 115 113 122 129 131 127 122 120 118 111 97 87 86 87 94 93 85 72 68 70 53 17 1 4 348 334 326 322 320 322 325 319 308 307 305 305 306 306 305 305 303 301
107 110 111 109 110 118 123 126 127 127 126 124 117 105 101 97 94 91 87 73 56 38 16 359 351 343 333 328 327 326 321 314 311 309 305 302 301 301 302 301 302 300 299 298
Height
1398 1393 1392 1391 1393 1397 1402 1402 1402 1393 1385 1377 1374 1374 1377 1383 1390 1397 1403 1408 1413 1419 1425 1431 1437 1442 1448 1452 1456 1460 1464 1467 1469 1470 1471 1471 1471 1470 1468 1466 1464 1461 1457 1453
1390 1381 1382 1384 1385 1389 1392 1396 1397 1391 1383 1374 1375 1376 1379 1384 1389 1395 1400 1405 1411 1417 1423 1428 1434 1440 1445 1450 1455 1459 1463 1465 1467 1469 1469 1469 1468 1467 1465 1463 1460 1457 1452 1448
1384 1375 1378 1380 1375 1379 1383 1386 1388 1386 1379 1375 1376 1376 1379 1383 1387 1391 1396 1402 1407 1413 1419 1426 1432 1438 1444 1449 1454 1458 1461 1464 1465 1466 1467 1466 1465 1464 1462 1459 1456 1452 1448 1443
1384 1379 1378 1370 1361 1366 1373 1375 1377 1376 1375 1373 1373 1377 1380 1384 1386 1390 1395 1400 1406 1413 1419 1426 1432 1438 1444 1449 1453 1457 1460 1462 1464 1464 1464 1463 1462 1461 1458 1455 1452 1448 1443 1438
1387 1382 1375 1365 1363 1364 1369 1371 1370 1371 1372 1374 1375 1379 1383 1385 1388 1391 1396 1401 1407 1413 1419 1426 1432 1438 1443 1448 1452 1456 1458 1460 1462 1462 1462 1461 1459 1457 1455 1451 1448 1444 1439 1434
1388 1385 1381 1368 1363 1362 1367 1371 1366 1366 1369 1372 1375 1383 1385 1385 1388 1393 1398 1403 1408 1414 1421 1427 1432 1438 1443 1447 1451 1454 1457 1459 1459 1459 1459 1458 1456 1454 1451 1447 1443 1439 1435 1430
1388 1387 1379 1367 1362 1362 1374 1371 1364 1364 1365 1369 1372 1376 1382 1384 1388 1394 1399 1405 1410 1416 1422 1427 1433 1438 1442 1447 1450 1454 1456 1457 1457 1457 1456 1455 1453 1450 1447 1443 1439 1434 1430 1425
1387 1387 1382 1364 1362 1366 1367 1365 1364 1363 1365 1369 1373 1377 1382 1387 1391 1396 1401 1407 1413 1418 1423 1429 1434 1439 1443 1447 1450 1452 1454 1455 1455 1455 1454 1452 1450 1446 1443 1438 1433 1428 1423 1419
1377 1376 1368 1365 1364 1365 1364 1365 1365 1365 1367 1370 1375 1381 1386 1391 1396 1401 1406 1411 1416 1421 1425 1431 1436 1440 1443 1447 1449 1451 1452 1453 1453 1452 1451 1449 1446 1442 1438 1433 1428 1423 1418 1413
1372 1369 1367 1366 1366 1366 1366 1366 1367 1369 1371 1374 1378 1385 1390 1396 1401 1405 1410 1415 1419 1423 1427 1432 1437 1442 1444 1447 1448 1450 1450 1451 1451 1450 1448 1445 1442 1438 1433 1429 1424 1419 1414 1409
1369 1367 1367 1367 1367 1367 1368 1370 1372 1375 1378 1380 1383 1390 1395 1400 1405 1409 1414 1418 1422 1426 1430 1434 1438 1442 1444 1446 1447 1448 1449 1449 1448 1447 1444 1441 1438 1434 1429 1425 1421 1417 1412 1407
1364 1362 1364 1365 1367 1369 1371 1373 1376 1379 1383 1388 1391 1395 1400 1404 1409 1413 1417 1421 1424 1428 1432 1436 1439 1442 1444 1445 1447 1447 1447 1447 1445 1443 1440 1437 1434 1430 1426 1423 1418 1414 1409 1404
1357 1358 1361 1363 1368 1371 1374 1377 1381 1384 1388 1392 1397 1401 1404 1408 1412 1416 1420 1423 1427 1430 1434 1437 1440 1442 1444 1445 1445 1446 1445 1444 1442 1440 1437 1433 1429 1425 1421 1417 1414 1410 1405 1400
1356 1358 1363 1366 1369 1373 1377 1381 1385 1389 1394 1398 1401 1405 1408 1411 1415 1418 1422 1425 1429 1432 1435 1438 1440 1442 1443 1444 1444 1444 1443 1441 1439 1436 1433 1429 1425 1421 1417 1411 1407 1403 1400 1395
1357 1358 1361 1365 1371 1376 1380 1384 1388 1393 1397 1401 1405 1408 1410 1413 1416 1420 1423 1427 1430 1433 1436 1438 1440 1441 1442 1442 1442 1442 1440 1438 1436 1433 1430 1426 1422 1418 1413 1408 1403 1398 1393 1389
1358 1360 1363 1367 1372 1377 1382 1386 1390 1395 1399 1403 1406 1410 1413 1415 1418 1421 1425 1428 1431 1434 1436 1438 1439 1441 1441 1441 1441 1440 1438 1435 1433 1429 1426 1422 1418 1414 1409 1404 1400 1394 1389 1384
1357 1362 1365 1369 1374 1379 1384 1388 1392 1396 1401 1404 1408 1411 1414 1416 1419 1423 1426 1430 1432 1434 1436 1438 1439 1440 1440 1440 1439 1437 1435 1432 1429 1426 1422 1418 1414 1410 1406 1401 1396 1391 1386 1381
1358 1359 1362 1365 1372 1379 1386 1391 1395 1399 1403 1406 1409 1412 1415 1418 1421 1424 1427 1430 1432 1435 1436 1438 1438 1439 1439 1438 1436 1434 1432 1429 1426 1422 1418 1414 1410 1406 1402 1397 1392 1387 1381 1377
1359 1362 1366 1371 1377 1382 1388 1393 1397 1401 1405 1408 1411 1414 1417 1420 1423 1426 1428 1431 1433 1435 1436 1437 1437 1437 1437 1435 1433 1431 1428 1425 1422 1419 1415 1411 1407 1403 1398 1393 1388 1383 1377 1372
1360 1364 1369 1375 1381 1386 1391 1395 1399 1403 1407 1410 1413 1416 1419 1422 1424 1427 1429 1431 1433 1435 1436 1436 1436 1435 1434 1432 1430 1428 1425 1422 1419 1415 1411 1407 1403 1398 1394 1389 1384 1378 1373 1369
1361 1366 1371 1377 1383 1389 1394 1398 1401 1405 1409 1412 1415 1417 1420 1423 1425 1428 1429 1431 1433 1434 1435 1435 1434 1433 1431 1429 1427 1424 1421 1418 1415 1411 1407 1403 1399 1394 1390 1385 1380 1375 1370 1365
1362 1368 1373 1379 1385 1391 1396 1401 1404 1407 1410 1414 1417 1419 1421 1423 1426 1428 1430 1432 1432 1433 1433 1433 1432 1430 1429 1426 1424 1421 1418 1415 1411 1408 1404 1400 1395 1390 1386 1381 1376 1371 1366 1362
1365 1371 1377 1382 1387 1392 1398 1403 1407 1409 1412 1415 1418 1420 1422 1424 1426 1428 1430 1431 1432 1432 1432 1431 1430 1428 1426 1424 1421 1418 1415 1412 1408 1404 1400 1396 1392 1387 1382 1377 1372 1367 1363 1358
1369 1375 1380 1386 1391 1395 1399 1404 1408 1411 1414 1417 1419 1422 1423 1425 1427 1428 1430 1430 1431 1431 1430 1429 1427 1425 1423 1421 1418 1415 1412 1408 1405 1401 1397 1393 1388 1383 1379 1374 1369 1364 1360 1356
1374 1379 1384 1389 1393 1397 1401 1405 1409 1412 1415 1417 1420 1422 1424 1426 1428 1428 1429 1429 1429 1429 1428 1427 1425 1423 1420 1417 1415 1412 1408 1405 1401 1397 1393 1389 1385 1380 1376 1371 1366 1362 1358 1354
1378 1383 1388 1392 1396 1399 1402 1406 1409 1412 1415 1417 1420 1422 1424 1426 1427 1428 1428 1428 1428 1427 1426 1424 1422 1420 1417 1414 1412 1408 1405 1401 1398 1394 1390 1386 1381 1377 1373 1368 1364 1360 1356 1352
1382 1386 1390 1395 1399 1402 1405 1408 1410 1413 1416 1418 1420 1423 1424 1426 1427 1427 1427 1427 1426 1425 1424 1422 1420 1417 1414 1411 1408 1405 1402 1398 1394 1390 1387 1383 1379 1375 1371 1366 1362 1359 1355 1351